This is the latest recevied weather packets stored in our database for station/object KE0PRS. If no packets are shown the sender has not sent any weather packets the latest 10 day(s).
| Time | Temp. | Humidity | Pressure | Rain* | Wind** | Luminosity | Snow |
|---|---|---|---|---|---|---|---|
| 1777857382 | 25° C | 23% | 1006.2 hPa | 0 mm | - | 13 W/m² | - |
| 1777857078 | 25° C | 23% | 1006.4 hPa | 0 mm | - | 18 W/m² | - |
| 1777856774 | 25.56° C | 23% | 1006.2 hPa | 0 mm | - | 25 W/m² | - |
| 1777856470 | 25.56° C | 23% | 1006.6 hPa | 0 mm | - | 28 W/m² | - |
| 1777856167 | 26.11° C | 22% | 1006.6 hPa | 0 mm | - | 32 W/m² | - |
| 1777855864 | 26.11° C | 21% | 1006.6 hPa | 0 mm | - | 35 W/m² | - |
| 1777855562 | 26.67° C | 21% | 1006.5 hPa | 0 mm | - | 36 W/m² | - |
| 1777855259 | 26.67° C | 21% | 1006.5 hPa | 0 mm | - | 44 W/m² | - |
| 1777854955 | 26.67° C | 20% | 1006.6 hPa | 0 mm | - | 34 W/m² | - |
| 1777854652 | 26.67° C | 20% | 1006.5 hPa | 0 mm | - | 33 W/m² | - |
| 1777854349 | 27.22° C | 20% | 1006.8 hPa | 0 mm | - | 36 W/m² | - |
| 1777854047 | 27.22° C | 19% | 1006.9 hPa | 0 mm | - | 42 W/m² | - |
| 1777853744 | 27.78° C | 18% | 1006.7 hPa | 0 mm | - | 58 W/m² | - |
| 1777853440 | 28.33° C | 19% | 1006.9 hPa | 0 mm | - | 65 W/m² | - |
| 1777853137 | 28.33° C | 19% | 1006.9 hPa | 0 mm | - | 75 W/m² | - |
| 1777852835 | 28.33° C | 19% | 1007 hPa | 0 mm | - | 108 W/m² | - |
| 1777852533 | 28.33° C | 19% | 1007.2 hPa | 0 mm | - | 149 W/m² | - |
| 1777852229 | 27.78° C | 19% | 1007.3 hPa | 0 mm | - | 156 W/m² | - |
| 1777851927 | 27.78° C | 18% | 1007.3 hPa | 0 mm | - | 99 W/m² | - |
| 1777851625 | 27.78° C | 19% | 1007.5 hPa | 0 mm | - | 83 W/m² | - |
| 1777851321 | 28.33° C | 17% | 1007.5 hPa | 0 mm | - | 84 W/m² | - |
| 1777851017 | 28.89° C | 18% | 1007.4 hPa | 0 mm | - | 120 W/m² | - |
| 1777850714 | 28.89° C | 18% | 1007.6 hPa | 0 mm | - | 251 W/m² | - |
| 1777850412 | 28.89° C | 17% | 1007.6 hPa | 0 mm | - | 169 W/m² | - |
| 1777850110 | 28.89° C | 18% | 1007.7 hPa | 0 mm | - | 251 W/m² | - |
* Rain latest hour (hover to see other rain measurements)
** Current wind speed in m/s (hover to see current wind gust speed)